Theta_e
322 327 328 329 331 332 330 327 324 323 322 315 314 315 316 321 322 319 318 317 316 317 318 318 318 320 322 321 322 322 322 323 324 324 323 324 317 315 317 316 319 320 322 322 324 326 325 324 324 326 326 328 329 329 330 331 332 333 334 334 335 336 336 336 337 337 337 336 337 338 337 337 337 337 337 337 337 338 338 337 338 338 338 338 338 338 338 338 337 337 338 339 339 339 338 338 337
324 328 329 329 330 331 331 327 323 320 316 312 314 316 318 322 320 318 318 317 318 318 318 318 318 320 320 319 319 320 321 321 321 323 321 318 316 315 315 315 317 319 321 321 323 325 324 323 323 325 326 327 327 327 328 329 330 331 331 332 332 333 334 334 334 334 335 334 334 335 335 335 335 335 335 335 335 336 337 337 337 337 338 338 338 338 338 338 337 338 338 339 339 338 338 338 337
327 328 329 329 330 330 330 327 321 315 313 311 314 319 321 320 319 319 318 318 320 319 317 318 318 319 319 319 318 319 321 320 319 320 318 317 317 314 313 315 316 318 319 320 322 323 322 321 321 323 324 324 324 325 325 326 327 327 327 328 329 331 332 331 331 331 331 331 331 332 332 332 332 332 332 332 332 333 334 334 334 334 335 335 336 337 338 338 338 338 338 338 338 338 337 337 337
328 330 330 330 330 329 329 328 323 315 311 310 312 320 321 320 320 319 320 319 319 317 318 317 317 317 318 320 319 318 319 321 319 319 319 317 316 313 313 314 314 317 317 319 320 320 320 320 320 320 321 321 321 321 321 322 323 323 324 324 326 327 328 328 328 328 329 329 329 329 329 329 329 329 329 330 330 331 331 331 332 332 332 333 333 334 335 336 337 337 337 337 337 337 336 336 336
328 330 328 330 332 328 328 327 324 316 313 312 312 320 320 320 320 319 320 319 318 318 317 317 318 317 316 317 318 318 320 320 319 319 319 316 312 311 312 313 313 315 316 317 318 319 318 318 318 318 318 318 318 318 318 318 318 319 320 320 321 322 323 324 324 325 325 325 326 326 326 326 327 327 327 327 328 328 328 329 330 330 331 331 331 332 332 333 334 334 335 335 336 335 334 334 333
327 328 325 328 329 325 324 320 317 316 317 318 316 320 320 319 320 319 319 318 317 317 316 317 318 317 316 316 316 318 318 319 319 318 318 315 311 310 311 311 311 313 314 315 316 317 316 316 315 315 314 314 313 312 313 313 313 314 314 315 316 317 318 319 320 320 321 321 321 322 322 322 323 323 324 324 325 325 325 326 326 327 328 329 329 330 330 331 331 331 331 332 332 332 332 332 332
326 326 325 326 325 322 322 317 315 317 319 321 319 320 320 319 319 319 319 317 316 315 315 317 317 317 317 316 316 316 315 317 319 317 316 313 310 309 309 309 310 311 311 313 314 314 314 313 312 311 310 309 308 307 308 308 308 308 308 309 310 311 312 312 313 314 314 315 315 316 316 316 317 317 318 319 320 320 321 322 322 323 324 325 326 327 328 328 328 329 329 328 329 328 329 329 330
325 325 326 325 325 322 319 317 317 320 320 320 319 320 319 319 319 319 318 318 317 316 316 316 316 316 317 317 316 315 313 314 316 314 313 311 309 308 308 307 308 308 308 310 311 311 310 310 308 307 307 306 305 304 304 304 304 304 304 305 305 305 305 306 306 306 306 307 307 307 308 308 309 309 310 311 313 314 315 316 317 318 319 320 321 322 323 324 324 325 326 326 326 326 326 327 327
324 325 324 323 325 322 318 317 318 321 322 320 319 318 318 319 318 318 318 318 318 317 316 316 315 316 316 316 317 315 313 313 312 312 310 310 308 307 306 306 306 305 306 306 308 307 306 305 304 304 304 303 303 303 302 302 302 302 301 301 301 301 301 301 301 301 301 301 301 301 302 302 302 302 302 303 304 306 307 309 310 311 312 314 315 316 318 319 320 320 321 322 323 324 324 325 325
323 323 324 324 322 318 315 316 318 322 322 320 319 318 318 318 318 318 318 318 317 317 317 316 315 316 316 317 317 315 314 312 310 310 309 308 307 306 306 305 305 305 304 304 303 302 301 300 300 300 300 300 301 301 300 300 301 300 300 299 299 299 299 299 299 298 298 298 298 298 298 298 299 298 298 298 299 299 300 301 302 302 303 304 305 307 308 310 312 313 315 316 318 319 320 321 322
323 322 322 322 318 314 312 315 319 323 322 320 319 317 317 318 318 318 318 318 318 317 316 315 316 316 316 316 317 315 313 311 311 311 308 307 306 306 306 305 304 304 304 302 300 299 298 298 298 298 298 298 298 299 299 299 299 298 298 298 298 298 298 298 298 297 297 297 297 297 297 297 297 297 297 297 297 297 297 297 297 298 297 298 298 299 300 300 302 303 305 306 308 310 312 314 315
323 324 323 319 317 315 316 317 318 322 323 320 319 317 316 317 317 318 318 318 318 317 316 315 316 316 316 316 316 314 312 312 311 310 307 307 306 305 304 304 303 302 302 300 298 298 297 297 297 297 297 297 297 297 298 298 297 297 297 297 297 297 297 297 297 297 297 297 297 297 297 297 296 297 296 296 296 296 296 296 296 296 296 296 297 297 297 297 297 297 298 299 300 301 302 304 306
321 324 324 319 320 320 319 318 319 321 321 320 320 317 316 316 317 318 318 318 318 318 317 316 315 315 316 317 315 312 312 312 311 308 307 306 305 304 303 303 302 301 299 298 297 297 297 297 296 296 296 296 296 297 297 297 297 297 297 296 297 297 297 297 296 296 296 296 296 296 296 296 296 296 296 296 296 296 296 296 296 296 296 296 296 296 296 296 296 296 297 297 297 297 297 298 299
320 322 323 321 322 322 319 317 319 319 318 320 319 316 316 316 317 317 317 318 317 317 316 316 315 314 315 316 315 313 313 312 310 307 306 305 304 303 303 302 300 299 298 298 297 297 297 297 296 295 296 296 296 296 296 296 296 296 296 296 296 296 296 296 296 296 296 296 295 295 295 295 295 295 295 295 295 295 295 295 295 295 295 295 295 295 295 295 295 296 296 296 296 296 296 297 297
321 321 320 320 320 319 319 319 320 318 318 320 317 315 316 316 316 317 317 317 317 314 314 315 315 315 315 316 317 314 313 311 308 306 305 304 304 303 303 302 300 299 298 298 298 297 297 297 296 296 296 296 296 296 296 296 296 296 296 296 296 296 296 296 295 295 295 295 295 295 295 295 295 295 295 295 295 295 295 295 295 295 295 295 295 295 295 295 295 295 295 295 295 295 296 296 296
320 321 321 319 317 317 320 321 321 318 319 320 315 315 316 315 314 315 314 313 315 313 313 314 314 314 314 315 314 313 313 310 307 305 305 304 303 303 302 301 300 300 298 299 299 298 298 297 296 296 296 296 296 296 296 296 296 296 296 296 296 296 295 295 295 295 295 295 295 295 295 295 295 295 295 295 295 295 294 294 294 295 294 294 294 294 295 294 295 295 295 295 295 295 295 295 296
320 321 321 318 317 318 321 322 320 318 319 318 314 314 316 315 313 313 311 310 314 314 313 313 313 313 312 311 309 311 311 308 306 305 304 304 303 303 302 302 301 301 300 299 299 298 297 296 296 297 296 296 296 296 296 296 296 296 296 295 296 295 295 295 295 295 295 295 295 295 295 295 295 295 295 295 295 295 295 295 295 295 294 294 294 294 294 294 294 294 294 295 295 295 295 296 297
320 322 320 318 319 320 321 321 320 319 319 318 315 314 315 316 313 312 311 311 313 313 313 313 313 313 311 307 306 310 309 306 306 305 305 305 304 303 303 302 301 302 301 300 300 299 297 296 296 296 296 296 296 296 296 295 295 295 295 295 295 295 295 295 295 295 295 295 295 295 295 294 295 295 294 294 294 294 294 294 294 294 295 294 294 294 295 294 294 294 294 294 294 294 295 297 299
320 322 320 319 322 321 320 319 318 318 318 317 316 315 315 316 315 312 312 314 313 313 314 312 313 312 310 307 306 309 307 307 306 305 306 305 305 304 303 303 302 302 301 301 301 299 299 298 297 297 296 296 296 296 295 295 295 295 295 295 295 295 295 295 295 295 295 295 295 295 295 294 295 295 294 294 295 295 294 294 294 294 294 294 294 294 294 294 294 294 294 294 294 294 294 296 297
319 321 320 321 321 320 319 317 317 317 316 317 316 315 315 316 315 312 312 315 314 314 314 313 313 313 312 308 307 308 307 307 307 306 307 306 306 305 304 304 303 303 302 302 301 300 300 299 297 297 296 295 296 295 295 296 295 295 296 295 295 295 295 295 295 295 294 295 294 294 294 294 295 296 294 294 295 295 295 294 295 295 294 293 293 294 293 293 293 294 294 293 295 295 294 295 296
320 319 319 321 319 318 318 316 316 315 315 315 315 315 314 315 314 312 313 315 315 316 315 315 314 314 314 309 307 308 307 308 307 307 307 306 306 305 305 304 304 303 302 302 301 300 300 299 298 297 296 295 295 295 296 297 296 297 297 295 296 295 295 295 295 295 294 294 294 294 294 294 295 296 294 294 295 295 295 294 295 295 294 294 293 294 293 291 293 294 294 294 295 295 296 296 296
318 318 318 319 317 318 317 315 315 314 313 314 315 315 314 314 313 313 314 314 316 316 316 316 315 315 315 310 307 308 308 308 308 308 308 307 307 306 306 305 304 303 302 302 302 300 299 299 298 296 296 294 295 296 298 297 296 298 298 296 297 296 295 295 296 296 295 293 294 294 296 296 296 297 295 293 294 294 294 293 294 294 293 294 292 293 293 291 293 294 294 293 294 294 295 296 297
316 318 318 318 317 317 316 314 313 312 312 313 314 314 314 313 313 314 313 314 316 315 314 314 314 314 315 311 308 308 308 308 308 308 308 308 307 307 306 305 304 303 302 302 301 300 299 299 298 297 296 294 295 297 297 296 296 299 298 296 298 298 296 297 298 297 295 293 293 293 295 297 297 297 294 293 294 294 294 292 293 293 293 294 292 293 293 291 292 293 293 293 292 292 293 294 296
315 317 318 316 315 315 315 313 311 311 312 313 313 312 313 313 314 314 314 314 315 315 313 312 312 312 313 311 309 308 308 309 309 309 308 308 308 307 307 305 304 303 303 302 301 300 299 299 298 297 297 295 295 295 296 297 297 298 296 295 297 297 297 298 297 295 295 294 293 292 294 296 296 296 294 293 294 294 293 292 293 293 293 294 292 292 293 291 292 293 293 293 292 292 292 293 295
316 316 317 316 314 314 314 313 312 312 312 312 311 311 313 314 314 313 313 314 314 314 313 311 310 310 311 310 309 309 309 309 309 309 308 309 308 308 307 305 304 303 302 302 301 300 299 298 297 297 297 296 295 294 296 298 297 296 295 297 297 295 296 297 295 295 296 295 293 292 293 294 294 294 293 293 293 292 292 292 292 293 292 293 292 292 292 291 291 293 293 293 292 292 293 294 294
315 316 316 315 315 314 314 313 312 312 312 312 311 312 313 313 312 312 313 314 314 314 314 312 310 309 310 310 309 309 309 309 309 309 309 309 308 308 307 305 303 303 302 302 300 299 299 298 297 297 297 297 296 296 297 298 297 296 296 297 296 295 296 294 294 295 295 294 293 292 293 293 293 293 292 292 292 292 292 292 292 292 292 292 291 291 291 289 290 292 293 293 292 292 293 294 294
313 314 314 314 314 314 313 313 313 313 312 312 311 312 314 312 311 314 314 313 313 314 313 313 310 310 310 309 309 309 309 309 310 309 309 308 308 308 307 305 303 302 302 301 300 299 298 297 297 297 297 297 296 296 297 297 297 297 296 296 295 295 294 293 294 295 293 293 292 292 292 292 292 292 292 292 291 291 292 291 291 291 292 291 290 290 290 289 290 292 292 292 292 292 293 294 294
312 312 313 314 314 314 313 313 312 312 312 312 311 312 313 312 310 314 313 310 311 313 313 312 310 310 310 309 310 309 309 309 309 309 309 309 308 307 307 305 304 302 302 301 300 299 298 297 296 297 296 296 296 296 297 297 297 297 295 296 295 294 293 294 295 294 293 293 292 292 292 292 292 292 292 291 290 291 291 290 290 290 291 290 289 289 289 289 290 292 292 292 292 293 293 294 294
312 311 313 315 315 315 314 313 312 312 312 311 311 311 312 313 312 314 313 310 310 312 312 312 310 310 310 310 310 309 309 309 309 309 309 308 307 307 306 305 304 302 302 301 300 299 298 297 297 296 296 296 295 296 297 296 297 296 295 296 295 292 292 294 294 294 293 292 291 292 292 292 292 291 291 291 290 290 290 290 290 290 290 289 288 289 289 289 290 292 292 292 292 293 293 293 294
312 312 313 314 315 315 315 314 312 312 312 310 311 311 312 315 314 315 314 310 310 311 311 312 311 310 310 310 309 309 309 308 308 309 308 308 307 306 306 305 304 302 301 301 300 299 298 297 297 296 296 296 295 296 296 296 296 295 295 295 294 292 293 293 294 293 293 292 292 292 292 292 291 291 291 290 290 289 289 290 290 290 290 289 288 289 289 289 291 291 291 292 292 292 293 293 293
313 314 314 314 314 315 315 313 311 312 311 310 312 311 312 315 315 316 314 311 311 311 312 312 312 311 310 310 309 308 308 308 308 308 308 308 307 306 305 305 304 302 301 300 299 299 298 297 296 296 296 296 295 295 296 296 295 295 295 295 293 292 293 293 293 293 293 292 292 292 292 291 291 291 291 290 290 289 289 289 290 290 289 288 288 288 288 289 290 290 291 291 292 292 292 292 292
315 314 313 315 314 315 316 313 312 314 311 310 312 311 313 315 316 315 313 311 311 312 313 313 313 313 311 310 309 308 308 308 308 307 307 307 307 306 305 304 303 302 301 300 299 298 298 297 296 296 295 295 295 295 295 295 295 294 294 294 293 292 293 293 293 293 293 292 292 292 292 291 291 291 290 290 289 289 288 289 289 289 288 287 287 287 288 289 290 290 290 291 291 291 291 291 291
317 315 313 315 314 315 316 313 312 313 312 311 311 312 313 314 315 313 310 311 311 312 313 313 313 313 312 311 309 309 308 307 307 306 306 306 306 305 304 304 302 301 300 299 299 298 297 297 296 295 295 295 295 295 295 294 294 294 293 293 292 291 292 294 293 293 292 292 292 292 292 291 290 290 289 289 289 288 288 288 288 288 287 287 287 287 288 288 289 290 290 290 290 290 290 290 290
315 316 315 316 315 314 314 313 312 312 312 312 312 312 313 314 314 313 310 311 311 312 313 313 313 313 313 313 310 309 309 308 306 306 306 305 305 304 303 303 301 301 300 299 299 298 297 297 296 295 295 295 295 295 294 293 293 293 293 292 291 291 291 293 293 292 292 292 292 292 291 290 290 289 289 289 288 288 288 288 287 288 287 287 287 287 287 288 289 290 290 289 289 289 289 289 290
312 313 313 314 315 314 314 314 312 311 312 312 313 313 313 313 314 314 313 312 312 312 312 313 313 313 313 313 312 310 309 308 307 306 306 305 304 303 302 302 301 300 299 299 298 297 297 297 295 295 295 295 295 295 294 293 293 293 293 292 291 291 291 292 292 292 292 292 292 291 290 290 289 289 289 288 288 288 288 287 287 287 287 286 287 287 287 289 289 289 289 289 288 288 289 289 290
314 314 314 313 312 313 316 315 311 311 312 312 312 313 313 314 313 314 314 313 313 312 313 313 313 313 313 313 313 312 310 309 308 307 306 304 303 302 301 301 300 299 299 298 298 297 297 296 296 295 295 295 295 294 294 293 293 293 293 293 292 292 292 292 291 291 291 291 291 290 289 289 289 289 288 288 288 288 287 287 287 287 287 287 287 287 288 288 288 288 288 288 288 288 289 289 289
316 316 315 314 313 313 317 316 309 309 312 312 313 313 313 314 313 314 313 313 313 313 313 313 313 313 313 313 314 313 311 310 309 307 306 304 303 301 300 299 299 299 298 297 297 297 297 296 296 296 295 295 294 294 294 293 293 293 293 293 293 293 293 292 291 291 291 291 290 289 288 289 288 288 288 288 287 287 287 286 287 287 287 286 286 287 287 287 287 287 288 288 288 288 289 289 289
316 315 313 314 314 315 318 315 308 308 310 312 313 313 313 313 313 313 313 313 313 312 313 313 313 314 314 314 314 314 312 310 309 307 306 304 302 301 299 299 298 298 297 297 297 297 296 296 296 296 295 294 294 294 294 294 294 294 294 294 294 293 292 292 292 291 290 290 289 288 288 288 288 288 288 287 287 287 286 286 286 286 286 286 286 286 286 286 287 287 288 288 288 288 288 288 289
315 315 314 314 315 317 317 313 308 308 309 312 313 312 313 313 313 313 313 313 313 313 314 314 314 314 315 315 315 315 312 309 308 306 305 304 302 300 299 298 298 298 297 296 296 296 296 296 296 296 295 294 294 294 293 294 294 294 294 294 294 293 292 291 292 292 290 289 288 288 288 288 288 288 287 287 287 286 286 286 286 286 286 286 286 286 286 287 287 287 287 287 287 287 288 288 288
315 315 315 315 316 318 316 312 309 309 309 311 312 312 312 313 313 313 313 313 313 314 314 315 316 315 315 316 316 315 312 310 309 306 305 303 302 301 299 298 298 297 297 296 296 296 296 296 296 296 295 294 294 293 293 294 294 293 293 293 293 292 292 291 290 290 289 288 288 288 288 287 287 287 287 287 286 286 285 285 285 285 285 285 285 286 286 286 287 287 287 287 287 287 287 288 288
315 317 316 315 317 317 316 314 312 311 311 310 311 312 313 314 315 315 314 314 314 313 313 313 314 315 315 316 316 315 312 311 310 307 305 303 302 301 299 298 297 297 297 296 296 296 296 296 295 295 295 294 294 293 293 293 293 292 291 291 291 290 290 290 290 290 289 289 288 288 288 288 287 287 287 286 286 285 285 285 285 284 284 284 285 285 286 286 286 286 286 286 286 287 287 287 287
315 317 318 317 317 317 317 317 315 315 314 311 311 314 313 314 315 316 315 314 313 313 312 313 313 313 314 316 315 314 313 312 311 308 305 303 302 301 300 299 297 297 296 296 295 295 295 295 295 295 295 294 294 293 293 292 292 291 290 290 290 291 291 291 291 291 291 290 290 289 289 288 287 287 287 286 286 285 284 284 284 284 284 284 285 285 285 285 286 286 286 286 286 286 286 286 287
314 318 319 317 317 317 317 317 316 315 315 312 312 314 315 314 313 315 315 314 313 314 315 317 315 314 314 316 316 313 312 312 311 309 306 304 302 301 300 299 298 297 296 296 295 295 295 295 295 295 294 294 294 293 292 291 291 291 291 291 292 292 292 292 292 292 292 291 290 290 289 288 287 287 286 286 285 285 284 284 284 284 283 284 284 285 285 285 285 285 285 285 285 285 285 286 286
315 317 317 315 316 317 317 317 315 314 315 314 313 314 315 315 314 315 314 313 314 314 314 315 316 315 314 316 317 314 312 312 311 309 306 304 303 301 301 299 298 297 296 296 295 295 295 295 295 295 294 294 293 293 292 291 291 291 291 292 292 293 293 293 293 292 291 290 289 289 288 287 287 287 286 285 285 284 284 284 283 283 283 284 284 284 285 285 285 285 285 285 285 285 285 285 285
315 313 313 313 314 315 315 315 314 314 315 315 315 314 315 315 315 315 314 313 312 312 312 313 313 315 315 316 317 314 313 313 310 309 307 305 303 302 301 300 298 297 296 296 295 295 295 295 295 295 294 294 293 292 291 291 291 291 291 292 292 293 293 293 292 291 290 289 288 288 288 287 287 286 285 285 284 284 284 283 283 283 283 283 284 284 284 284 284 284 284 284 284 284 284 285 285
313 311 312 312 312 312 313 313 313 313 315 316 316 315 315 316 314 314 314 312 312 313 313 313 314 315 317 319 318 314 312 312 310 309 308 306 304 302 301 300 298 297 296 296 295 295 295 295 295 294 294 294 293 292 291 291 290 291 291 291 292 292 292 291 291 290 290 289 288 288 288 287 287 286 286 285 284 284 284 283 283 283 282 283 283 283 283 283 283 284 284 284 284 284 284 284 284
310 312 313 313 312 311 311 312 312 314 317 318 317 315 315 316 315 314 314 313 313 314 313 314 315 315 318 321 318 313 312 311 310 309 307 306 305 303 301 300 299 297 296 296 295 295 294 294 294 294 294 293 293 292 291 290 290 290 291 291 291 291 291 291 290 290 289 289 289 288 288 287 287 286 285 285 284 284 283 283 283 282 282 282 282 282 283 283 283 283 283 283 283 283 283 283 284
311 313 313 314 314 312 312 312 312 315 318 317 316 317 316 315 314 313 314 314 313 315 314 314 315 315 318 322 318 313 311 310 308 307 306 305 304 303 301 300 299 297 296 296 295 295 295 294 294 294 294 293 293 292 291 290 290 290 290 290 290 291 291 291 290 290 290 289 289 288 288 287 286 286 285 285 284 284 283 283 282 282 282 282 282 282 282 282 282 282 282 282 282 283 283 283 283
311 312 312 315 316 315 316 316 315 317 317 314 314 317 318 315 313 313 314 313 313 314 314 314 315 314 317 323 319 313 311 309 307 306 305 304 303 302 301 300 298 297 296 296 295 295 294 294 294 294 293 293 292 291 291 290 290 289 289 290 290 290 290 290 290 290 289 289 288 288 287 287 286 286 285 285 284 284 283 282 282 281 281 281 281 281 281 281 281 281 281 282 282 282 282 282 282
310 313 313 316 317 318 320 319 318 318 317 313 311 314 316 313 312 313 313 313 313 313 313 315 316 315 319 324 320 315 311 309 306 305 304 303 302 302 301 300 298 297 296 295 295 295 294 294 294 294 293 293 292 291 291 290 290 289 289 289 289 290 290 290 289 289 289 288 288 287 286 286 285 285 284 284 284 283 282 282 281 280 280 280 279 280 280 281 281 281 281 281 281 281 281 282 282
310 312 314 315 316 317 318 317 317 317 315 312 310 312 313 310 311 314 314 313 314 313 314 316 317 318 321 319 316 314 310 307 306 305 303 302 302 301 300 299 298 297 296 295 295 295 294 294 294 293 293 293 292 291 290 290 290 289 289 289 289 289 289 289 288 288 287 287 287 286 285 285 284 284 284 283 283 282 282 281 280 279 279 279 279 279 280 280 280 280 280 280 281 281 281 281 281
311 312 314 315 316 315 315 316 315 314 314 314 312 311 311 310 313 315 314 314 314 313 313 315 315 318 319 316 314 312 308 306 305 304 303 302 301 301 300 299 298 297 296 295 294 294 294 294 293 293 293 292 292 291 290 290 290 289 289 289 289 288 288 288 287 287 286 286 286 285 284 284 284 284 283 283 282 282 281 280 279 279 279 279 278 279 279 279 279 279 279 280 280 280 280 280 281
313 312 314 315 315 316 316 317 315 312 314 315 314 313 312 312 313 314 313 313 313 313 313 313 314 316 317 316 316 312 308 306 305 303 302 302 301 300 299 298 297 296 295 295 294 294 294 293 293 293 293 292 291 290 290 290 289 289 288 288 288 288 287 287 287 286 286 285 285 284 284 284 283 283 283 283 282 281 280 279 278 278 278 278 278 278 278 278 278 278 279 279 279 279 279 280 280
313 312 314 314 313 314 314 316 316 314 316 316 314 314 313 311 313 313 312 312 312 312 312 313 313 315 316 316 315 313 310 308 305 303 302 301 301 300 299 298 297 296 295 294 294 294 293 293 293 292 292 292 291 290 289 289 289 288 288 288 287 287 287 286 286 286 285 285 284 284 283 283 283 283 283 282 281 280 279 278 278 278 278 277 278 278 278 278 278 278 278 278 278 279 279 279 279
309 310 311 312 313 314 313 315 315 315 317 315 314 313 312 312 313 312 311 311 311 312 312 312 312 313 315 314 314 314 312 309 306 304 303 301 300 299 298 297 296 295 295 294 293 293 293 292 292 292 292 291 290 290 289 289 288 288 288 287 287 286 286 286 285 285 285 284 284 283 283 283 282 282 281 280 279 278 278 278 277 277 277 277 277 277 277 277 277 277 277 278 278 278 278 278 279
306 307 309 310 311 313 313 314 314 313 315 314 314 314 312 313 314 313 312 312 312 312 312 313 312 312 314 314 313 313 312 310 308 306 304 302 300 298 298 296 295 295 294 293 293 293 292 292 292 291 291 291 290 289 289 288 288 287 287 286 286 286 285 285 284 284 284 283 283 283 283 282 282 281 280 279 278 278 277 277 277 277 277 277 277 277 277 277 277 277 277 277 277 277 277 278 278
308 307 309 310 310 310 311 313 313 313 314 313 314 315 312 312 314 314 312 312 313 313 313 314 314 313 313 313 312 312 312 311 310 308 306 303 300 298 297 296 295 294 293 293 292 292 292 291 291 291 291 290 290 289 288 288 287 287 286 286 285 285 284 284 284 284 283 282 282 283 283 282 281 280 279 278 277 277 277 277 276 276 276 276 276 276 276 276 276 275 276 276 276 276 276 276 277
312 310 310 311 311 311 312 314 314 312 313 314 314 315 313 312 313 313 312 312 312 312 312 314 316 314 313 313 313 312 312 311 310 308 306 305 302 298 296 295 294 293 292 292 291 291 291 291 291 290 290 290 289 288 288 287 287 286 285 285 284 284 284 283 283 282 282 282 282 282 282 281 280 279 278 277 277 276 276 276 276 276 275 275 275 275 275 275 274 274 275 275 275 275 275 275 275
Wind_Speed
2 2 1 1 3 4 4 4 4 3 4 5 1 1 3 4 1 3 6 5 3 5 4 2 2 1 1 2 3 4 5 3 3 1 0 4 5 3 3 5 6 6 6 6 5 5 6 5 7 8 8 8 7 8 7 6 6 7 6 4 5 9 9 8 7 7 6 5 7 6 6 7 7 7 7 7 8 8 9 9 9 9 8 8 7 6 7 7 7 7 8 8 8 8 7 7 7
3 2 1 3 4 4 2 2 4 3 5 5 3 1 5 6 4 6 7 7 2 4 6 3 4 3 1 4 5 6 2 5 6 4 3 6 7 4 3 4 6 6 6 6 5 5 7 5 6 9 8 8 8 8 7 7 9 7 5 4 5 8 9 7 7 7 6 5 5 5 5 5 5 5 5 6 7 8 8 8 8 8 7 8 7 8 8 8 8 8 9 9 9 9 8 8 8
4 3 3 3 4 4 2 2 5 4 5 4 3 4 5 6 5 5 4 5 6 7 6 4 3 2 2 4 4 5 2 5 6 6 6 7 7 5 5 5 6 5 5 6 6 5 6 4 5 7 7 7 8 7 7 7 8 6 5 5 5 8 7 5 4 4 4 4 4 4 4 4 4 4 5 5 5 5 5 6 6 6 6 6 6 7 8 9 9 9 9 8 8 9 9 8 8
4 4 4 4 4 4 3 4 5 5 5 4 1 6 6 5 5 4 6 7 8 7 5 5 3 0 4 8 3 3 2 4 5 5 6 6 5 7 7 6 6 5 6 6 6 5 2 3 5 6 6 6 6 6 6 6 6 5 6 5 6 7 6 4 4 3 3 3 3 3 3 4 4 5 5 5 5 5 5 5 6 6 6 6 5 5 6 7 9 8 7 7 7 9 9 9 10
3 4 4 5 3 1 3 4 4 6 5 4 2 5 6 4 5 6 7 7 6 5 4 6 4 3 2 5 2 2 0 4 5 4 6 7 6 8 8 7 7 5 6 5 6 6 3 5 5 5 5 6 6 6 6 5 5 5 6 6 6 6 5 5 4 4 3 3 3 3 3 3 4 4 5 5 6 5 5 5 5 6 6 6 6 6 5 5 6 7 6 6 6 8 10 10 11
3 4 4 5 3 1 3 4 4 6 2 4 3 3 6 4 5 8 7 6 6 3 2 5 2 2 3 1 1 1 3 2 5 5 5 9 8 8 8 7 6 6 6 6 5 4 5 6 5 5 5 5 6 6 6 5 5 6 6 6 6 5 5 5 4 4 3 3 3 3 3 3 4 4 5 6 6 6 6 6 6 6 6 6 6 6 6 6 7 7 8 8 8 9 10 10 11
4 3 3 4 3 1 5 6 5 5 2 3 3 3 3 5 5 8 9 6 4 3 2 4 1 1 3 3 2 2 5 2 5 5 5 10 10 9 9 7 7 7 6 6 5 4 6 6 6 6 6 6 6 6 5 5 5 5 5 5 5 5 4 4 4 4 3 3 3 3 3 3 3 4 4 5 5 6 6 6 7 7 7 7 7 7 7 7 8 9 9 10 10 11 11 11 11
5 3 1 3 4 3 6 6 6 4 2 3 1 2 1 4 7 7 8 5 4 6 6 6 3 4 2 3 3 3 5 4 6 7 8 10 11 11 8 7 7 7 7 6 5 5 6 7 7 7 6 6 5 5 4 3 3 3 3 3 3 3 3 3 3 3 3 3 3 3 3 3 3 4 4 4 4 5 5 6 7 7 8 8 8 8 8 8 9 10 10 11 12 13 13 13 12
5 4 1 3 5 4 5 7 5 4 1 2 2 1 2 3 7 7 8 6 3 5 7 8 6 5 2 3 3 5 6 7 9 9 10 10 11 11 8 7 7 8 7 7 6 6 7 7 7 7 6 5 5 4 3 3 3 2 2 2 2 1 1 2 2 2 2 2 3 3 3 4 4 5 5 5 4 4 5 6 7 7 8 9 9 10 11 11 11 12 12 13 14 15 15 15 15
5 4 2 3 5 5 6 6 4 1 2 2 2 3 3 4 6 7 8 7 5 5 5 6 8 8 2 3 2 4 8 11 12 11 11 11 12 11 9 8 8 8 8 8 8 7 7 7 6 6 5 5 5 5 4 4 3 3 2 2 2 2 1 1 1 1 2 2 3 3 4 4 5 6 6 6 6 6 6 6 7 8 9 9 10 11 12 12 13 14 15 16 17 18 18 18 18
4 4 2 4 5 6 5 4 2 1 3 3 3 5 5 6 7 7 8 8 7 6 5 6 6 10 9 7 2 5 11 14 13 13 13 13 13 11 10 11 11 10 10 11 9 7 7 6 6 6 5 5 5 5 5 4 4 3 3 3 3 3 2 2 2 2 2 3 3 4 5 5 6 6 7 7 7 7 7 7 8 8 9 10 10 11 12 12 13 14 16 17 18 19 20 20 20
4 3 3 5 6 5 4 5 4 2 2 4 6 7 6 7 8 8 10 9 8 7 7 9 2 3 9 7 1 8 13 14 13 14 14 13 12 11 10 10 12 11 12 11 10 9 7 7 7 7 6 5 4 4 4 4 3 3 3 3 3 3 3 3 3 4 4 4 5 5 6 6 6 6 7 7 7 8 7 8 8 9 9 10 10 11 12 12 13 14 15 16 17 18 19 19 20
5 3 4 6 5 6 6 6 4 3 4 5 6 7 7 9 10 10 10 9 10 9 8 11 3 1 7 4 3 7 11 14 14 15 15 13 11 11 9 9 11 12 12 11 10 10 9 8 7 7 6 4 3 3 2 2 2 3 3 3 3 4 4 5 5 6 6 7 7 7 7 7 7 7 7 7 7 7 7 7 8 8 9 10 11 11 12 12 13 14 15 15 16 17 18 18 19
4 3 4 5 4 6 6 6 5 5 5 2 5 7 8 8 9 10 8 10 12 6 2 6 5 1 8 5 4 5 10 16 16 16 16 13 12 11 10 10 12 12 12 11 10 10 9 8 7 7 6 4 4 2 2 1 1 2 2 3 3 4 5 6 6 7 7 8 8 8 8 9 9 9 9 9 9 9 9 8 8 9 9 9 10 10 11 11 12 13 14 15 16 17 17 18 18
3 3 3 5 5 6 4 5 5 5 4 6 6 6 8 5 4 9 9 10 6 3 4 4 6 3 3 6 3 3 13 19 18 17 16 14 12 12 11 12 13 13 13 11 10 10 10 9 9 8 7 6 4 3 3 2 1 1 1 2 3 4 5 5 6 6 7 8 8 8 9 10 11 12 12 12 12 12 12 12 12 12 11 11 11 11 11 11 11 12 12 13 14 15 16 16 17
3 3 3 5 6 6 2 3 3 4 3 6 5 5 8 5 3 7 3 4 2 4 4 4 8 5 4 1 2 5 17 21 18 18 16 15 13 11 11 11 11 11 13 12 11 12 11 11 10 9 9 8 7 6 5 3 2 1 1 1 2 3 4 5 5 6 7 8 8 9 11 12 12 12 13 13 13 13 14 14 14 14 14 14 14 14 13 13 14 13 13 13 13 13 14 14 15
2 3 5 5 6 6 1 2 2 2 3 5 6 6 8 6 5 4 3 3 6 4 7 6 8 7 4 3 4 8 19 20 18 18 16 15 13 12 12 12 12 11 13 13 12 14 14 13 12 11 11 10 9 7 6 5 4 3 2 1 1 1 2 3 4 5 6 7 8 9 11 11 10 11 11 12 12 12 13 13 13 13 14 14 15 15 15 16 17 17 17 17 17 16 17 16 16
3 4 5 6 6 5 1 4 3 3 5 1 6 7 9 7 7 5 1 6 10 9 9 8 8 8 3 7 7 11 19 18 19 19 17 16 14 14 14 14 15 13 14 14 13 14 15 14 13 12 12 11 10 9 7 6 5 4 4 3 2 1 1 2 3 4 5 6 7 9 9 9 9 10 10 10 10 11 12 12 12 13 13 14 15 15 15 17 17 18 19 19 20 20 21 19 17
5 4 5 6 6 3 2 5 4 4 6 2 3 7 9 6 5 7 6 10 11 13 13 10 12 12 9 10 10 14 18 18 19 20 19 18 17 17 16 16 16 15 15 15 15 16 15 15 14 12 13 12 10 9 9 8 7 6 5 4 3 2 1 1 2 3 4 5 6 8 8 8 9 9 10 11 11 12 13 13 14 14 15 16 17 17 18 19 19 20 21 21 21 21 21 20 19
5 4 6 5 4 3 2 4 5 4 5 4 4 4 7 6 3 7 7 11 12 15 13 11 14 15 15 14 14 17 18 19 20 21 20 20 19 18 17 17 17 17 17 16 15 16 15 15 15 14 15 13 11 11 10 9 9 8 7 6 5 3 2 0 1 3 4 5 7 7 7 9 10 9 11 12 12 13 14 15 15 15 17 18 18 19 20 21 22 22 22 23 21 21 21 20 20
2 4 7 4 3 5 3 2 3 3 2 6 5 2 7 7 4 6 7 10 12 14 13 14 15 16 16 15 16 18 19 19 21 21 21 21 20 19 18 17 17 16 16 15 15 17 17 15 16 16 15 14 12 11 10 10 10 8 7 7 6 4 2 0 1 3 4 5 6 6 8 10 10 8 10 12 11 12 13 14 14 14 16 17 18 17 18 21 20 19 20 21 20 20 20 19 19
2 7 10 6 3 6 2 2 1 0 1 6 6 5 5 3 5 10 11 11 11 6 5 11 13 13 11 16 18 17 18 19 21 22 22 22 22 21 19 17 17 16 16 16 15 17 18 16 17 17 15 15 13 11 10 11 10 8 7 7 5 4 3 1 1 2 2 4 5 6 7 8 7 7 9 10 10 11 11 13 12 13 15 15 17 16 17 21 19 17 18 20 20 20 20 20 20
5 8 9 6 5 6 2 2 1 1 4 7 7 5 2 4 8 11 14 18 14 2 3 1 3 3 4 16 17 16 18 18 20 24 25 25 25 24 22 19 18 18 17 17 16 16 19 18 18 18 17 16 15 13 12 11 10 8 9 9 6 5 3 2 2 1 1 3 4 5 5 4 5 5 7 9 9 10 11 14 13 13 15 14 17 16 17 21 18 17 18 19 21 22 22 21 20
7 8 7 5 4 7 4 1 2 3 7 7 3 4 5 10 11 8 14 20 18 10 3 3 3 2 6 14 15 16 18 19 22 25 26 25 26 26 23 20 19 18 17 17 17 16 19 19 19 20 17 17 17 15 12 10 9 10 10 8 7 7 5 4 4 2 0 2 2 3 4 3 3 3 6 7 8 9 11 14 13 13 14 13 16 16 16 20 18 17 17 19 21 21 21 20 19
10 10 7 3 3 7 6 2 4 5 6 5 4 7 11 13 8 9 17 18 16 15 9 6 6 6 9 12 15 15 16 19 21 23 23 23 23 24 23 20 19 18 18 18 17 17 19 20 21 20 17 16 16 15 12 9 10 11 10 8 8 8 6 5 5 3 2 1 1 2 2 2 2 3 6 7 8 10 12 14 13 13 14 12 15 15 15 19 18 16 15 17 20 20 18 16 17
6 7 7 5 6 7 6 6 8 7 6 5 6 12 13 8 4 11 21 19 16 16 14 10 8 9 11 12 14 15 15 17 19 21 22 21 21 23 24 22 21 20 19 19 18 17 19 20 21 19 18 16 15 14 12 10 10 10 10 10 9 8 7 7 5 4 4 3 2 1 1 1 2 3 6 7 9 11 11 13 12 12 12 11 15 15 16 19 17 15 14 16 18 18 17 15 16
3 7 8 9 11 9 7 9 9 6 6 8 10 13 11 3 1 12 12 6 10 12 14 12 9 11 13 12 13 14 15 18 20 20 20 20 21 24 25 24 23 22 20 21 20 19 19 21 22 20 18 17 16 15 12 11 10 10 11 11 9 9 8 6 5 4 5 4 3 1 1 1 2 3 5 6 9 10 10 12 13 13 12 12 16 16 17 20 17 14 13 16 18 16 15 14 14
5 7 10 12 13 11 10 11 10 7 5 8 9 11 12 5 6 18 9 5 5 9 11 12 11 11 12 13 13 12 13 17 20 19 20 22 23 24 26 27 26 23 22 23 21 20 21 22 22 20 18 18 18 14 12 12 10 11 11 9 9 10 8 6 5 5 4 4 3 2 2 1 2 4 5 7 9 9 11 13 14 15 12 13 18 18 19 20 16 13 12 15 15 13 14 14 13
6 5 10 13 12 13 14 13 9 8 5 6 5 8 13 12 14 23 13 8 7 8 10 11 12 11 11 12 11 11 12 15 18 19 22 24 23 24 27 27 26 24 22 22 21 21 22 22 22 19 17 19 19 14 12 12 10 12 11 9 10 9 7 6 5 5 4 4 4 2 2 1 2 4 6 8 10 10 12 14 14 14 12 15 20 19 19 18 14 12 12 14 13 12 13 13 13
6 6 7 10 11 12 11 9 7 8 5 6 5 8 10 13 21 21 8 11 9 9 11 11 11 11 10 11 10 11 12 14 17 21 23 24 22 23 26 26 26 25 21 21 22 22 22 23 21 19 18 19 18 14 12 12 11 11 11 9 10 8 7 7 6 6 5 4 4 3 2 2 3 4 6 9 10 11 12 12 12 12 13 18 21 18 17 16 13 12 13 14 14 13 13 14 15
5 5 5 6 9 7 6 8 9 9 4 7 7 7 11 11 15 14 9 11 10 10 12 12 12 11 10 11 11 11 12 14 19 22 23 23 22 22 24 25 25 25 22 22 24 22 22 23 22 21 20 18 19 16 12 13 12 11 10 9 10 9 8 7 6 6 6 5 4 4 4 3 4 6 7 9 10 11 11 10 11 11 15 19 19 17 17 16 13 14 15 15 15 14 14 16 16
6 5 6 7 7 6 6 9 11 8 3 8 9 6 11 14 6 7 9 9 10 10 11 11 13 13 12 11 11 11 12 15 19 22 23 23 23 22 23 25 26 26 24 22 23 23 21 23 25 24 22 20 20 18 14 14 13 12 11 10 11 10 8 7 7 7 6 6 4 4 5 4 5 7 8 9 9 10 10 10 11 13 17 19 18 17 17 16 14 15 16 13 15 16 16 17 17
7 7 8 8 8 9 6 7 9 7 4 10 12 7 9 10 1 7 7 8 9 10 12 13 15 15 13 12 11 11 11 13 16 19 23 24 23 22 22 24 26 26 25 22 24 25 22 24 27 26 24 22 20 19 17 16 14 13 12 12 12 11 9 7 7 7 6 6 5 4 6 5 6 7 8 9 9 10 11 12 13 15 17 18 18 18 18 17 15 15 15 14 15 16 17 18 18
6 7 7 9 11 11 7 3 5 7 6 9 13 11 13 14 10 6 6 9 10 11 14 16 17 16 15 12 12 12 12 13 14 18 23 24 22 22 21 23 25 24 24 22 24 26 23 24 28 26 24 22 19 18 18 17 16 14 13 13 12 11 10 9 7 7 6 5 5 6 7 5 6 8 8 10 10 11 13 13 14 14 16 17 17 18 18 17 14 12 15 16 16 16 17 18 19
10 9 7 9 11 11 12 5 4 10 8 9 11 13 17 19 18 16 12 11 13 14 15 17 18 18 16 13 13 13 13 14 13 17 23 23 21 22 21 22 24 24 24 23 23 25 23 23 27 26 22 20 18 18 18 16 15 14 12 11 12 10 10 10 8 8 7 6 6 8 8 5 6 9 9 10 12 13 13 13 13 13 15 16 16 18 17 13 12 13 16 17 16 16 17 17 18
14 12 9 11 11 11 15 7 5 9 7 9 13 15 18 19 17 18 17 15 14 15 15 16 17 17 14 14 14 13 13 13 12 16 21 22 22 22 21 22 23 23 23 23 24 25 24 23 25 23 22 21 19 17 18 16 14 13 12 11 11 10 9 9 9 9 8 7 8 10 8 6 8 10 10 12 13 13 13 13 13 13 14 14 16 16 14 12 13 15 16 16 16 16 15 15 16
12 11 10 13 13 13 16 7 4 5 5 10 14 16 19 19 18 18 17 17 17 18 18 18 17 15 13 14 14 14 13 9 10 14 18 21 21 21 21 21 22 23 23 24 25 25 24 24 25 23 22 22 20 19 18 17 15 14 13 12 11 11 11 10 9 9 9 9 10 10 8 8 10 10 11 12 13 13 13 12 12 12 12 13 15 15 16 16 16 15 15 14 15 15 14 14 14
12 11 11 13 11 13 15 4 5 5 3 9 13 15 19 18 17 17 17 18 18 19 21 20 19 16 13 14 15 13 9 7 9 12 15 18 20 21 22 21 23 24 24 25 26 25 25 24 25 24 23 23 21 20 19 18 16 14 13 13 12 11 12 10 8 9 10 11 11 10 9 10 10 11 11 12 12 12 12 12 12 12 12 13 15 17 17 16 15 14 13 13 13 13 14 14 13
11 9 8 10 10 12 11 2 6 4 4 7 11 13 17 17 18 18 19 19 18 18 20 19 17 16 14 13 12 10 8 8 10 11 13 16 19 20 21 20 22 24 24 25 25 25 25 24 24 24 23 23 22 20 20 17 16 15 13 13 13 11 11 12 12 11 11 11 11 10 10 10 10 11 11 12 12 12 12 12 12 13 13 13 14 15 15 14 13 12 12 12 13 14 14 12 10
9 8 7 10 9 8 7 2 3 5 7 8 11 12 14 16 17 19 22 21 17 17 17 17 15 14 15 13 9 7 10 9 10 12 12 14 17 19 20 20 21 22 22 24 25 25 26 25 25 24 23 23 22 21 20 17 17 18 17 16 16 13 11 13 14 13 12 11 10 11 11 11 11 11 11 12 12 12 12 12 13 13 14 13 13 13 14 13 13 12 11 12 13 13 13 11 10
9 10 10 11 11 11 10 3 3 7 8 4 8 11 11 12 13 14 14 12 12 12 11 13 14 13 13 12 8 8 9 9 10 12 13 13 15 18 20 20 20 22 23 25 26 26 25 25 25 24 23 23 22 23 22 20 21 23 20 17 16 14 12 11 11 11 11 11 11 11 11 11 11 11 12 12 12 12 12 13 13 14 14 14 12 12 13 13 13 12 12 12 12 13 14 13 11
9 11 14 16 14 14 13 6 6 8 7 2 3 10 8 6 9 9 5 5 7 7 8 12 13 11 11 10 8 9 9 8 9 11 13 13 14 17 19 20 21 23 24 24 26 26 24 25 26 24 23 23 22 24 26 25 25 24 21 18 15 13 12 11 11 10 10 10 10 10 10 11 11 12 12 13 13 13 12 13 13 14 14 13 12 12 13 13 13 12 12 12 12 13 14 14 13
8 5 6 12 13 14 13 8 4 6 7 1 2 8 9 4 6 8 5 6 8 7 8 11 9 8 9 8 7 9 9 8 9 10 12 13 13 15 18 21 23 23 24 23 24 26 25 25 26 25 24 23 24 27 30 29 26 23 21 19 15 13 12 11 11 10 9 9 8 8 9 10 12 13 13 13 13 12 12 12 13 13 13 12 12 12 14 14 13 12 12 13 14 13 13 14 14
5 1 3 3 6 10 9 7 6 6 9 5 4 5 12 9 6 10 10 8 8 8 11 14 11 9 11 10 7 9 10 9 9 10 12 13 14 15 18 21 23 23 23 23 24 26 26 25 27 27 25 24 27 30 31 31 28 23 21 18 14 13 12 11 11 10 10 10 9 9 10 10 12 13 13 13 13 12 12 12 12 12 12 12 12 13 14 14 13 13 14 14 15 14 13 13 14
2 3 3 2 0 3 3 4 6 7 8 8 7 7 9 11 5 12 14 12 10 12 15 16 15 12 11 10 7 9 9 10 10 11 12 13 14 17 19 20 21 22 24 24 25 26 26 26 27 28 26 25 29 32 32 32 29 25 22 18 15 13 12 11 10 10 11 11 10 10 10 11 12 13 14 13 13 12 12 12 12 12 12 12 13 14 15 15 14 15 15 15 15 15 13 14 15
2 4 4 5 3 1 1 4 5 6 9 10 8 10 7 12 3 10 11 10 11 12 13 14 14 13 10 7 7 8 8 8 9 10 11 12 14 17 18 19 20 22 24 24 25 26 27 27 27 29 28 26 29 33 33 33 29 26 23 20 18 15 14 13 11 10 10 10 10 10 11 11 10 10 11 12 12 12 11 12 11 12 12 12 14 15 15 15 15 15 15 15 15 16 15 15 15
5 5 3 2 2 2 2 4 2 5 11 10 12 17 11 10 2 9 8 10 13 11 10 11 11 10 8 6 7 8 8 8 8 9 10 11 13 16 17 18 20 21 22 23 24 26 28 28 28 30 29 28 31 34 34 34 32 29 25 22 21 18 15 15 13 12 11 10 10 10 11 10 9 10 10 11 11 11 10 11 12 13 14 14 14 15 14 14 14 14 14 15 15 15 16 16 16
4 3 2 2 4 2 3 4 3 6 10 5 12 19 17 11 4 7 8 12 15 11 7 10 9 8 7 6 7 8 8 8 8 8 9 10 11 14 16 18 20 21 22 24 25 27 28 29 29 30 30 29 31 35 35 34 33 32 28 25 23 21 18 17 15 13 12 12 11 11 10 10 10 10 10 10 9 10 11 12 13 14 14 13 14 13 13 14 14 14 14 14 15 15 15 16 16
4 5 5 4 4 3 5 5 4 8 8 3 8 11 14 13 9 8 8 9 13 11 6 8 8 7 6 5 7 7 7 7 8 7 7 9 9 11 14 17 20 21 23 25 26 27 28 29 29 30 31 29 31 35 36 35 34 33 31 27 25 22 20 18 16 14 13 12 12 12 12 11 10 10 9 9 9 10 13 14 15 14 13 14 14 15 15 15 14 14 14 15 15 16 16 16 17
8 8 7 6 6 5 6 6 6 9 7 3 6 4 6 8 7 14 16 13 13 11 8 8 8 8 5 2 6 6 6 6 7 7 7 8 9 10 12 16 19 20 22 25 26 27 27 28 29 30 30 29 30 34 35 34 33 33 33 30 26 23 21 19 17 15 15 15 14 14 15 14 12 12 11 10 10 12 14 15 15 15 15 16 17 17 16 15 14 14 14 15 16 16 17 17 18
10 8 7 7 6 6 7 7 8 7 6 1 4 3 4 3 1 9 17 17 14 10 9 9 9 7 2 3 4 4 5 6 6 7 8 9 10 10 12 16 19 19 22 25 25 26 27 28 30 32 30 30 31 34 35 34 32 33 32 30 27 25 24 23 20 18 18 19 18 17 18 17 16 14 13 12 12 14 15 16 16 16 16 17 17 17 15 14 14 14 15 16 17 17 17 17 18
7 6 7 8 6 7 7 7 5 3 7 5 5 4 6 5 1 5 8 12 14 12 11 10 9 8 4 3 4 4 5 6 5 6 8 9 10 10 12 15 17 18 21 24 25 27 29 30 31 32 31 30 32 34 35 33 32 32 32 31 29 27 26 24 22 21 21 22 21 21 19 19 17 15 15 14 14 15 15 16 17 16 16 16 17 16 15 15 14 14 15 16 17 17 17 18 19
5 6 7 3 1 3 7 8 1 1 7 8 5 7 8 8 6 8 10 12 15 14 13 12 11 11 7 6 6 6 7 7 6 7 7 9 9 10 13 15 16 18 21 25 28 29 31 31 31 31 30 29 32 34 35 33 32 33 33 32 31 29 28 26 25 24 24 23 23 22 21 19 18 16 15 15 15 16 16 16 17 16 16 16 16 15 15 15 15 15 16 17 17 17 17 19 19
4 4 4 1 3 1 4 6 3 4 10 9 9 13 12 9 7 8 14 14 15 15 14 12 12 11 9 9 9 9 9 8 7 7 7 8 9 10 13 16 18 20 24 27 29 29 30 31 33 32 30 32 34 36 36 35 35 34 34 33 32 31 30 29 27 25 25 25 24 22 21 19 17 16 15 15 16 16 16 16 16 16 16 15 15 15 15 15 14 15 17 17 17 17 18 19 19
1 2 2 0 2 4 5 6 5 7 9 9 15 20 14 10 6 6 14 15 15 15 13 10 11 11 10 11 11 11 9 8 8 9 8 8 9 10 13 16 18 21 24 26 27 28 28 31 34 32 30 33 36 36 36 36 36 36 35 35 33 32 31 29 28 27 26 26 24 22 20 18 16 15 14 15 15 15 15 15 15 16 15 15 15 15 15 14 14 15 16 17 17 17 18 20 19
1 4 3 1 2 3 5 5 5 7 8 9 15 18 13 8 6 9 16 16 15 14 11 10 11 12 11 11 11 11 10 10 10 11 10 10 10 11 14 17 18 20 21 22 24 26 27 29 31 30 28 31 36 36 36 36 36 37 36 35 34 32 31 30 29 28 27 26 25 23 20 18 16 15 15 15 15 15 15 15 15 15 15 15 15 14 14 14 15 16 16 17 17 17 18 20 21
5 5 6 6 3 1 2 4 5 6 7 7 9 14 12 4 3 9 12 11 12 12 10 9 9 11 11 10 11 11 10 10 11 11 11 10 9 10 13 15 16 17 19 20 22 23 25 26 28 30 28 30 35 37 38 37 36 36 36 35 34 33 31 30 29 29 28 27 24 22 20 18 16 15 15 15 15 15 15 14 15 15 15 15 15 14 14 14 15 16 16 17 17 17 19 20 21
8 9 10 10 8 5 3 7 6 3 5 8 7 13 15 2 7 7 6 4 6 7 8 7 7 10 11 10 12 12 11 11 10 11 11 11 9 8 11 14 15 16 18 20 21 22 24 25 27 29 29 30 35 37 37 37 36 35 36 34 33 33 31 30 30 29 28 26 24 22 20 17 16 16 15 15 15 15 14 14 15 15 16 15 15 15 14 14 15 16 16 16 16 17 19 20 21
Wind_Direction
137 150 111 255 260 276 253 236 253 206 234 264 220 186 160 134 88 177 177 174 210 194 168 95 155 125 113 346 302 304 342 349 357 348 302 83 116 110 98 99 95 94 95 76 75 63 38 61 68 53 54 54 55 58 60 67 68 71 74 76 75 64 62 65 65 64 65 74 70 62 61 58 55 54 52 51 50 41 29 32 36 31 25 20 13 355 348 347 342 343 345 347 343 331 323 317 320
144 183 208 259 245 259 262 194 266 222 225 252 184 166 124 137 191 201 189 181 160 129 148 138 176 192 9 348 319 286 314 50 42 74 85 118 130 118 119 109 97 97 102 82 69 72 53 60 77 62 60 64 64 67 71 73 70 75 89 92 86 66 64 69 66 64 56 57 64 62 64 63 56 53 48 46 49 46 31 31 39 36 30 29 25 8 360 355 353 356 355 357 350 337 328 315 310
170 209 214 244 228 243 283 198 262 267 255 268 141 118 133 166 195 196 176 144 93 102 140 126 156 219 234 240 257 263 240 82 90 99 106 149 149 134 150 131 109 95 103 93 71 69 57 68 90 74 70 73 73 80 82 81 80 89 101 103 97 76 76 87 73 65 50 37 36 36 40 37 28 24 23 21 23 26 16 9 18 22 16 20 23 15 9 2 359 360 359 358 350 338 333 325 318
175 227 234 249 223 223 250 221 258 283 277 294 104 128 158 188 182 150 90 91 93 119 149 150 170 95 238 234 247 294 262 103 102 95 121 157 131 129 155 137 111 98 107 97 75 69 83 123 108 91 85 84 89 92 93 93 93 100 101 103 101 87 96 107 92 84 67 47 37 30 19 9 3 1 2 3 9 10 357 347 346 348 347 352 356 359 4 3 360 355 356 355 346 336 332 331 325
184 236 245 263 250 230 262 250 260 265 281 328 4 133 167 191 164 128 94 99 107 138 161 186 194 88 258 266 301 293 130 100 109 102 113 128 117 135 154 132 118 116 112 102 90 80 118 146 123 112 105 99 103 101 103 102 102 105 100 104 103 101 111 107 101 95 84 75 62 47 27 6 354 350 351 349 357 3 1 355 344 338 334 334 332 337 343 342 342 339 342 338 330 325 328 328 322
223 224 233 259 273 337 267 253 249 243 300 345 334 99 161 183 152 133 119 111 111 126 148 198 207 109 215 243 280 329 52 98 132 118 117 137 141 148 144 129 126 125 118 112 113 115 143 146 131 128 125 119 116 111 108 105 104 104 102 104 105 105 110 108 106 97 90 85 67 50 31 8 355 349 347 346 347 351 353 354 351 345 336 333 328 325 325 325 327 326 326 322 316 315 318 318 314
248 219 201 231 231 248 252 253 263 257 48 11 336 41 160 165 141 137 142 135 138 161 186 207 174 239 209 135 198 78 78 89 112 116 133 145 148 148 138 133 132 127 129 121 133 176 174 158 144 136 133 131 125 123 117 114 110 105 106 101 103 103 101 105 103 96 87 76 64 51 35 15 4 355 350 348 343 342 340 338 337 336 335 334 330 324 320 322 326 322 320 319 315 314 313 311 308
255 252 191 237 225 203 248 258 265 276 54 54 33 19 11 144 153 158 168 171 168 172 189 195 190 246 202 145 220 117 114 100 103 123 130 142 153 152 138 139 137 130 134 134 162 187 183 176 159 146 140 136 131 135 128 127 126 123 129 112 109 98 91 89 83 81 75 68 62 57 48 37 26 19 13 2 350 344 335 330 325 325 326 326 324 320 317 316 319 318 317 316 313 312 312 311 308
234 244 224 250 246 219 244 256 253 268 204 139 146 137 3 149 174 182 188 185 165 173 187 181 189 224 132 179 217 123 151 134 121 131 134 146 153 153 141 147 149 142 143 148 177 185 186 185 171 163 155 153 147 147 145 145 148 154 162 153 147 110 88 72 67 70 68 71 68 60 51 41 33 30 29 23 13 1 347 338 332 330 328 324 322 318 316 314 313 313 311 311 309 309 309 309 310
219 225 253 260 260 249 245 249 236 233 182 174 159 161 176 179 190 200 200 196 181 173 172 168 195 223 252 249 216 116 155 147 140 142 143 151 151 155 149 153 154 152 160 165 178 183 189 188 188 188 179 178 171 169 170 167 163 159 158 157 168 161 160 127 109 94 80 77 66 59 51 42 36 32 29 29 25 19 10 358 350 347 342 336 332 327 322 318 315 313 312 311 309 309 308 309 309
227 205 249 269 252 252 255 264 253 156 141 176 182 165 176 185 197 208 211 209 190 174 149 150 205 231 249 261 236 105 139 151 155 153 151 154 153 155 156 164 165 166 176 177 177 177 185 191 196 200 197 193 185 184 176 172 170 162 159 152 154 154 155 149 139 117 94 77 66 60 55 52 48 43 37 35 31 30 25 18 12 5 360 353 348 342 337 332 326 320 316 313 311 310 309 309 309
248 209 214 256 259 268 294 307 304 312 165 206 202 170 173 184 194 207 211 212 193 191 179 174 206 251 234 252 194 125 146 163 163 157 154 154 154 155 158 169 172 177 182 179 178 179 184 190 195 197 195 193 188 189 177 171 166 160 158 148 144 138 132 123 112 100 93 85 80 74 70 67 62 59 52 45 40 35 31 27 24 18 13 6 1 355 350 345 339 333 327 322 318 315 313 311 309
250 266 244 256 281 291 306 307 304 305 262 231 197 160 167 184 198 210 210 218 209 213 203 186 179 332 244 261 111 147 164 170 164 157 156 157 158 156 152 160 171 179 181 180 183 187 187 188 195 190 181 180 179 184 188 177 163 155 148 140 135 122 108 97 91 90 90 88 86 81 79 75 70 67 61 57 50 43 37 32 27 23 19 12 8 3 358 353 348 343 338 333 330 327 324 320 316
255 290 276 269 286 283 287 285 291 294 280 146 135 146 174 195 205 214 213 224 220 212 178 172 174 219 259 255 157 174 173 167 162 156 158 159 158 157 156 164 177 184 184 185 189 192 190 188 189 184 171 166 161 165 188 183 169 146 129 125 115 106 100 94 90 87 84 81 78 75 73 70 66 61 58 57 54 51 47 43 41 36 30 23 17 12 7 1 356 351 346 342 339 335 333 330 326
268 282 266 268 276 273 255 264 298 292 294 102 129 156 183 202 204 216 221 231 223 111 93 137 181 187 267 237 194 142 160 161 158 156 156 156 156 158 163 174 184 189 189 186 188 190 189 189 187 182 173 168 166 175 191 182 173 128 94 91 88 89 89 86 82 77 71 67 65 61 58 54 49 45 43 43 43 43 40 37 36 35 32 28 25 21 17 11 6 360 355 349 346 342 340 336 331
263 279 250 257 269 272 220 237 291 275 305 96 144 167 187 198 186 218 238 277 288 110 170 181 190 220 315 243 72 106 150 154 154 155 153 154 156 162 170 178 183 189 192 190 191 193 191 190 187 185 181 181 182 190 199 190 185 168 129 94 79 76 71 70 64 59 57 55 52 51 48 45 40 35 32 31 30 30 30 27 24 25 22 19 17 16 14 13 10 5 2 357 354 350 346 345 344
246 253 247 254 257 265 224 227 263 290 341 100 154 179 204 203 176 216 18 293 258 199 202 212 199 228 295 104 104 131 145 149 153 156 157 161 165 172 180 184 183 186 194 195 196 199 199 196 189 190 191 190 194 197 199 194 192 186 172 167 130 91 70 62 51 45 46 45 44 48 48 47 42 34 28 25 23 22 22 18 14 15 12 11 9 9 9 10 7 3 4 1 359 358 358 360 356
226 231 246 256 262 272 319 273 279 314 304 175 165 191 222 216 173 176 153 234 241 235 226 224 216 221 191 119 129 147 148 155 162 166 170 173 179 183 187 190 190 189 192 194 195 199 201 200 195 196 197 195 199 200 198 195 193 191 190 189 178 153 100 65 52 44 45 46 45 49 48 44 42 34 26 22 19 18 18 13 11 11 9 9 6 4 7 7 3 2 3 0 1 2 3 3 354
231 251 256 258 274 303 10 293 281 286 288 273 182 203 226 234 174 157 207 229 222 232 234 221 224 224 189 150 154 159 160 169 173 180 182 183 189 190 191 191 195 194 191 192 193 195 197 200 198 198 202 199 197 197 194 192 188 187 189 191 190 190 180 93 56 45 40 40 42 47 40 32 37 27 16 16 17 16 13 10 11 10 8 7 5 5 5 2 1 1 0 0 2 2 1 360 353
232 247 255 266 304 308 283 264 263 277 285 268 246 206 222 239 173 150 218 244 228 230 232 219 223 226 207 175 166 170 174 181 184 190 191 193 196 196 197 195 196 196 192 190 189 191 193 197 197 200 205 197 192 192 187 185 185 183 186 190 188 194 200 202 32 34 28 29 36 42 30 25 34 21 12 17 17 15 11 10 10 8 7 5 4 6 3 360 1 1 358 360 1 358 357 356 352
223 217 254 297 2 304 284 235 266 283 281 269 260 211 234 235 194 191 225 248 244 240 235 229 224 227 216 180 171 179 181 187 190 196 198 199 201 202 204 201 199 197 191 188 187 190 192 194 198 203 203 195 192 189 183 186 185 181 186 189 186 194 196 196 5 17 17 26 35 36 26 26 33 19 12 18 16 15 10 10 10 4 5 3 3 5 0 360 3 1 357 357 357 353 352 350 348
259 235 255 288 303 284 311 79 338 326 269 267 246 236 244 206 206 221 229 238 247 255 251 239 229 241 224 171 172 182 185 193 193 198 203 203 204 205 206 203 200 195 190 189 187 190 192 193 199 202 200 197 193 184 187 193 187 180 187 188 181 191 190 156 69 32 4 23 37 39 37 30 31 20 9 13 14 13 6 7 7 2 3 0 0 1 357 1 2 357 356 355 354 352 349 347 346
257 252 253 265 263 263 292 68 97 185 242 243 240 257 247 219 239 231 228 237 244 256 55 269 228 267 180 158 169 182 188 197 197 200 203 203 205 205 205 202 199 195 190 191 188 187 189 190 197 201 200 199 194 189 194 196 187 181 193 189 175 182 180 150 145 171 309 16 42 49 56 45 37 27 9 10 11 8 1 3 4 360 0 356 358 359 354 359 359 354 354 352 352 352 349 348 345
241 266 266 259 253 251 264 82 161 217 242 243 272 297 246 240 255 250 237 239 245 246 180 147 138 123 157 163 174 185 193 198 201 204 203 204 206 204 205 203 201 196 190 190 187 185 186 187 196 199 197 200 200 196 192 191 189 193 198 188 182 186 167 160 179 179 185 4 32 53 69 72 49 27 9 11 8 3 358 359 2 358 358 355 355 358 352 355 355 351 350 348 349 348 347 346 341
225 256 277 268 245 250 253 225 223 229 237 246 264 259 248 249 272 275 253 247 247 248 234 189 174 181 188 188 188 191 198 201 203 205 205 208 208 206 206 205 202 196 192 190 186 186 185 187 197 197 194 197 200 196 189 187 190 197 193 181 192 189 168 180 191 160 152 262 318 33 72 89 45 11 2 6 360 358 355 356 360 355 356 354 352 355 351 351 351 346 343 343 345 344 341 339 335
226 265 294 273 259 258 244 240 243 233 227 219 229 248 250 252 306 274 255 252 249 243 241 223 199 208 209 205 203 199 200 203 204 204 205 206 206 206 206 204 203 201 197 191 187 186 184 188 194 193 193 193 193 192 188 187 189 193 190 186 194 186 184 197 182 163 177 206 263 321 6 354 360 352 354 358 355 356 356 355 356 354 354 350 349 351 347 349 349 341 336 336 340 340 337 332 328
322 293 295 273 265 261 239 245 244 230 235 217 223 253 253 201 191 260 253 252 242 228 231 225 214 224 221 216 212 206 206 206 203 201 202 202 204 206 204 203 205 203 196 191 190 186 184 189 193 191 192 192 192 191 187 188 186 189 193 191 192 189 194 193 174 185 198 214 240 257 285 328 349 348 352 354 354 356 354 351 352 352 350 346 346 345 343 348 346 334 328 331 335 333 329 325 321
321 306 295 273 261 252 234 237 235 221 229 213 223 260 254 199 208 248 239 114 184 199 212 215 216 229 223 221 216 209 212 208 203 199 200 201 202 202 201 202 202 200 196 193 190 185 186 191 194 191 188 194 196 190 188 188 183 188 192 186 192 197 192 178 179 195 206 227 232 226 255 334 358 346 348 347 355 356 347 347 350 349 346 340 342 342 343 347 341 327 320 325 329 322 318 318 315
293 296 287 279 270 256 236 225 216 207 202 173 200 269 251 211 222 247 230 154 172 193 213 216 218 228 222 221 216 212 213 206 202 201 205 205 202 199 201 202 198 196 197 194 188 185 188 189 190 187 186 198 197 188 190 189 183 192 190 183 197 199 186 180 186 195 205 231 234 226 251 316 339 337 342 343 350 349 344 345 345 344 339 333 339 343 342 341 333 321 320 324 323 317 315 316 315
282 267 267 282 280 265 228 199 178 190 188 144 179 274 264 213 221 241 205 157 183 202 222 225 224 225 220 219 214 214 211 204 204 204 207 207 204 202 203 203 197 195 193 190 188 185 187 187 185 184 187 196 195 187 189 189 185 191 187 188 201 192 180 186 190 199 200 215 241 241 252 293 312 324 332 335 338 339 341 340 338 337 329 331 339 341 336 335 329 321 325 325 322 321 318 317 316
260 256 245 256 268 268 180 164 167 182 174 150 184 257 274 261 235 221 166 162 192 213 225 227 229 223 215 215 212 214 210 207 209 207 208 208 207 205 204 202 196 194 190 187 188 183 183 187 186 188 189 190 193 188 184 186 184 186 184 187 197 186 178 184 190 201 195 195 228 247 254 278 301 312 317 323 328 331 335 333 332 328 324 332 338 335 334 335 330 325 328 325 322 322 318 318 316
231 247 258 241 245 254 190 176 187 196 155 170 196 236 263 281 277 158 148 172 194 225 236 231 237 232 219 211 208 214 212 210 212 209 209 210 208 205 203 201 195 193 191 185 185 180 179 188 192 194 193 190 193 190 186 189 185 186 187 187 197 190 178 180 189 195 189 193 207 239 257 270 288 298 305 313 321 324 327 327 325 322 324 332 335 332 335 335 329 324 325 323 319 318 317 318 316
228 226 261 261 255 265 230 176 198 212 146 178 210 249 264 274 286 124 146 184 197 231 247 245 250 247 233 219 207 209 209 209 210 207 209 210 208 204 200 199 195 193 191 185 181 180 179 188 196 198 198 195 193 192 192 194 191 191 191 193 200 193 182 178 189 194 189 198 196 216 249 264 277 286 298 308 316 318 321 324 324 323 326 330 331 332 334 332 326 319 317 318 316 316 316 316 316
250 227 249 263 264 270 257 202 198 199 192 208 216 236 256 262 264 246 201 192 205 235 254 257 258 255 245 233 217 208 204 208 205 201 206 207 204 201 199 197 195 192 191 186 182 182 180 188 198 199 198 192 188 190 193 195 194 193 194 198 200 194 190 184 186 191 186 195 191 211 241 260 274 281 295 305 312 316 319 325 325 323 323 327 329 330 331 328 320 310 311 314 316 317 315 314 313
280 274 266 273 271 264 262 264 162 175 203 232 228 234 250 257 264 267 255 228 223 236 253 260 259 257 253 243 231 218 207 210 205 197 201 202 198 196 195 194 192 190 190 187 183 183 180 187 197 196 192 187 184 188 189 191 191 191 191 195 197 194 196 196 195 193 187 194 201 222 242 251 265 280 297 304 308 313 317 321 320 316 319 324 326 326 325 319 310 307 309 311 314 314 309 308 306
284 289 284 284 283 270 269 277 146 180 212 231 236 246 256 260 261 265 268 262 253 252 256 259 260 259 256 249 242 228 215 212 202 196 195 193 192 190 188 189 189 188 189 186 183 183 181 184 190 189 187 184 181 182 184 186 184 186 186 187 194 193 192 197 200 199 193 196 215 233 246 251 262 281 295 300 304 310 314 315 313 313 317 321 321 320 314 306 305 307 309 310 311 310 306 303 303
283 284 280 275 274 272 272 273 146 183 235 245 246 253 260 264 264 264 269 271 270 270 264 259 260 260 255 250 246 232 220 206 188 192 189 185 185 182 182 185 185 185 187 186 184 184 183 183 184 183 184 184 182 182 184 186 185 186 186 185 189 188 188 192 198 206 205 205 224 241 251 259 267 281 290 295 301 304 308 309 306 308 312 315 315 311 306 306 306 305 307 308 307 305 305 304 304
272 269 273 273 267 267 273 263 140 168 226 260 263 265 265 264 265 265 265 265 264 263 263 263 264 267 263 254 249 237 214 180 173 185 182 178 177 176 179 182 183 185 187 187 187 184 183 183 184 184 184 185 186 185 186 189 189 187 185 186 185 181 185 189 188 199 208 215 231 246 254 262 271 279 284 290 294 296 299 299 300 305 308 310 310 307 307 307 305 301 302 303 303 301 299 300 305
265 261 261 265 263 270 274 178 135 171 215 270 279 277 274 270 266 262 257 257 255 250 255 264 269 271 267 260 255 232 190 171 180 184 179 175 173 175 179 184 187 188 187 188 188 184 183 184 185 185 185 186 187 188 189 188 187 186 182 181 178 173 184 191 188 193 209 224 239 249 254 260 268 274 280 285 288 292 294 294 300 306 307 308 307 305 302 300 297 295 295 297 300 298 295 297 303
244 244 247 255 256 267 268 184 146 202 218 274 293 284 275 268 258 250 247 248 250 250 252 260 264 264 263 266 267 221 186 184 189 186 182 177 175 179 183 186 187 187 188 189 188 186 186 187 187 185 185 186 186 189 189 183 185 187 185 184 182 177 187 200 205 212 226 237 243 248 254 257 261 267 273 279 283 286 288 292 301 304 304 304 302 297 293 291 290 290 291 290 292 296 297 298 299
231 227 235 249 253 257 264 298 341 256 233 254 295 283 268 258 246 239 236 232 244 252 251 255 256 255 259 264 256 214 190 192 194 187 183 181 181 185 188 187 186 187 190 190 188 188 188 189 187 184 185 186 187 190 186 183 190 193 191 192 193 191 196 207 213 219 228 234 236 240 247 250 255 264 269 275 281 282 286 294 302 302 301 300 295 287 284 284 284 284 285 284 284 288 293 296 295
244 225 230 244 258 264 268 309 353 297 264 161 324 298 272 232 233 234 197 178 217 229 237 247 246 244 254 256 229 199 195 204 201 187 181 183 185 186 188 188 188 190 193 191 189 189 188 188 186 184 186 186 187 192 192 193 196 195 192 191 191 193 198 204 206 204 206 215 221 223 234 246 256 265 269 274 279 281 290 296 299 298 296 296 290 280 277 279 281 279 278 278 280 282 287 293 293
252 237 244 247 257 266 268 287 307 281 281 193 64 308 285 230 217 229 204 191 195 189 229 246 240 229 235 245 211 182 195 202 194 185 179 181 183 183 187 190 191 192 192 189 187 190 189 187 186 185 186 186 189 197 199 199 199 196 196 195 191 192 195 198 198 192 187 188 194 207 231 252 261 267 270 274 277 282 291 295 294 293 293 292 285 276 274 275 276 275 274 274 278 281 281 285 291
248 15 354 259 253 261 259 269 255 260 292 280 175 247 278 272 221 217 221 222 209 208 241 253 251 232 222 229 200 174 192 191 180 182 181 183 183 184 188 191 193 192 188 186 186 189 189 187 186 186 187 188 194 200 201 202 201 198 196 194 192 193 191 185 179 181 187 191 199 217 237 252 260 266 269 271 276 283 289 291 290 290 291 289 279 271 269 269 272 273 273 273 275 278 276 278 286
249 61 39 62 14 264 241 247 256 272 292 273 201 185 265 281 212 193 209 215 217 223 237 249 252 246 234 227 196 174 189 184 175 180 181 183 183 186 189 189 191 190 186 186 187 187 188 187 187 187 189 190 197 202 202 203 202 200 198 193 190 191 188 181 175 182 197 206 215 226 237 246 254 263 268 270 276 282 287 290 291 291 292 287 273 265 265 267 272 274 273 274 275 275 275 275 279
152 115 90 78 89 102 172 241 268 283 273 259 212 171 235 284 203 167 195 202 209 222 232 241 244 246 239 211 177 171 181 177 175 180 181 182 183 185 187 187 187 187 186 186 185 185 187 187 187 190 191 192 199 202 203 203 202 201 200 194 192 191 186 186 185 187 196 205 215 224 232 236 239 246 254 265 274 280 285 290 292 292 293 284 269 267 270 273 275 275 273 274 276 276 276 274 273
135 145 121 114 187 165 204 237 260 278 264 244 203 181 208 273 191 145 179 194 196 203 219 238 243 242 226 180 165 173 172 172 173 175 174 174 178 180 182 186 185 183 183 183 184 186 187 188 189 191 192 194 200 203 203 204 204 203 202 199 198 193 184 185 187 189 194 197 205 216 225 225 220 225 237 253 266 276 284 289 292 295 296 286 274 274 276 277 277 275 275 275 275 275 274 273 271
164 172 187 216 227 197 213 215 164 249 263 222 184 186 199 236 217 153 183 193 190 185 207 249 259 252 227 170 163 173 167 168 169 167 168 168 172 177 181 186 184 181 181 182 186 187 188 191 191 191 193 194 199 203 203 203 204 205 204 204 204 198 191 191 190 189 193 196 201 209 215 219 222 231 242 250 262 277 284 289 294 296 293 281 274 275 276 276 276 275 276 276 275 275 273 272 271
202 190 194 231 245 229 229 219 189 235 255 139 155 189 209 236 245 228 225 198 188 190 217 260 265 255 241 176 156 165 161 163 166 165 166 170 175 178 182 185 183 182 183 185 187 187 190 193 192 193 194 192 196 201 202 202 203 205 205 205 206 203 199 198 195 191 194 198 203 210 213 216 221 228 239 244 256 273 280 285 290 288 280 274 276 279 279 275 273 274 275 273 274 274 271 269 267
194 190 186 206 232 247 246 238 236 247 249 140 129 182 235 261 252 227 229 215 200 209 226 242 246 243 246 166 137 150 164 166 167 170 170 176 182 182 183 186 185 186 186 187 189 188 190 193 193 195 195 191 195 200 200 200 202 204 206 206 205 204 201 200 198 193 197 202 208 215 220 222 226 233 240 246 255 266 272 278 283 281 279 281 285 285 280 273 271 273 274 274 274 274 272 269 268
195 195 197 214 228 240 246 251 253 267 289 213 146 180 237 272 150 198 219 216 202 219 230 223 232 229 192 92 124 150 179 182 172 174 179 182 184 182 182 186 189 189 187 187 190 190 191 193 194 195 195 192 195 198 198 197 199 202 205 204 203 204 204 205 203 201 205 211 214 218 224 228 232 238 244 250 258 264 272 278 281 282 282 285 286 284 279 274 274 274 275 275 275 274 273 270 269
196 186 208 232 239 229 247 276 274 315 316 270 191 220 247 257 232 160 200 202 187 209 227 215 225 219 168 152 191 181 187 195 185 184 189 185 184 185 183 187 191 189 187 189 190 191 192 193 194 194 194 192 193 197 198 195 196 200 202 202 203 204 205 205 205 207 211 214 216 219 224 230 234 240 246 254 262 268 275 279 280 281 281 282 282 280 277 277 277 274 275 275 273 273 273 271 270
167 177 207 227 323 240 248 273 291 91 283 266 221 243 258 266 251 170 164 181 182 204 221 214 223 219 199 208 215 202 197 198 194 194 194 185 183 189 187 188 191 187 188 192 193 195 195 194 194 192 192 192 193 196 197 194 195 198 199 201 202 203 204 205 206 208 210 213 216 219 223 229 235 241 249 257 264 270 274 276 278 279 278 278 277 275 276 281 279 274 273 274 274 274 273 271 270
142 186 217 91 37 311 249 262 268 244 263 270 260 261 262 267 259 168 164 182 192 208 217 216 223 219 214 222 223 218 206 196 198 199 201 194 187 193 192 191 193 193 195 198 197 198 199 199 197 191 189 192 195 196 197 196 196 196 197 199 200 202 204 205 206 208 209 211 214 217 222 228 234 241 249 258 265 270 272 274 277 278 276 274 274 275 278 280 277 275 274 274 274 274 274 272 270
172 275 293 75 223 211 204 227 247 250 259 270 272 274 267 251 250 175 175 191 202 211 213 213 219 215 216 226 229 228 212 198 206 204 200 200 195 197 196 192 194 198 200 200 199 200 199 201 201 194 190 195 197 196 196 197 196 196 196 197 199 202 204 205 205 206 208 210 212 216 220 225 230 238 247 256 262 265 268 270 272 274 271 269 272 276 277 273 271 273 274 273 273 272 272 272 271
242 297 273 224 246 234 211 211 228 241 250 265 278 282 272 244 229 177 175 191 204 206 203 207 215 215 215 222 229 231 220 210 213 213 205 200 198 199 196 193 193 195 196 195 194 197 196 197 199 194 190 195 198 196 196 196 196 197 196 196 198 200 202 203 204 206 207 209 212 214 218 222 228 236 243 249 253 256 260 263 264 264 263 263 267 270 270 266 267 271 271 271 272 271 271 272 273
184 225 220 199 197 266 288 249 234 237 246 255 268 275 273 264 165 164 163 185 200 195 199 205 207 215 217 220 227 230 229 222 218 220 216 205 198 193 191 193 192 189 191 191 189 191 192 191 193 191 187 191 196 197 197 196 196 197 196 194 196 198 200 202 204 206 207 208 210 212 216 221 226 232 238 242 245 250 255 254 253 255 256 259 260 260 262 264 266 268 269 269 270 270 271 272 273
186 199 201 199 191 182 229 236 224 212 241 246 246 265 272 255 120 133 123 151 193 193 209 210 201 214 218 219 226 227 228 230 225 222 221 213 199 181 180 186 186 185 187 188 187 188 190 190 190 189 187 191 194 195 196 195 194 195 195 193 194 196 198 200 202 203 205 206 208 211 215 219 224 230 234 237 242 247 248 245 247 252 255 256 257 256 257 263 265 266 268 269 269 270 271 271 272